OE6PWE-13 Weather Reports


time (UTC)temp
C
wind
direction
speed
KPH
gust
KPH
rain 1hr
cm
rain 24hr
cm
rain mn
cm
humidity
%
barometer
mb
20260506170019 18 178 9.7 27.4 0.00 0.00 0.00 66 1007.0
20260506164513 19 199 4.8 17.7 0.00 0.00 0.00 66 1007.0
20260506161513 18 218 14.5 29.0 0.00 0.00 0.00 66 1007.0
20260506154513 19 234 11.3 25.7 0.00 0.00 0.00 64 1007.0
20260506151513 20 216 17.7 37.0 0.00 0.00 0.00 63 1007.0
20260506150020 20 164 17.7 43.5 0.00 0.00 0.00 61 1007.0
20260506144513 21 214 12.9 30.6 0.00 0.00 0.00 59 1007.0
20260506141514 20 142 12.9 29.0 0.00 0.00 0.00 60 1007.0
20260506140020 21 180 16.1 30.6 0.00 0.00 0.00 58 1007.0
20260506134513 21 151 11.3 32.2 0.00 0.00 0.00 56 1007.0
20260506133020 21 187 14.5 29.0 0.00 0.00 0.00 57 1007.0
20260506131513 22 188 16.1 35.4 0.00 0.00 0.00 54 1007.0
20260506130020 22 177 14.5 37.0 0.00 0.00 0.00 54 1007.0
20260506124513 22 180 14.5 27.4 0.00 0.00 0.00 54 1007.0
20260506123021 22 233 11.3 35.4 0.00 0.00 0.00 53 1007.0
20260506121513 21 177 14.5 40.2 0.00 0.00 0.00 54 1008.0
20260506120018 21 196 14.5 27.4 0.00 0.00 0.00 56 1008.0
20260506114513 21 188 8.0 22.5 0.00 0.00 0.00 57 1008.0
20260506111513 20 220 9.7 24.1 0.00 0.00 0.00 59 1008.0
20260506110021 20 202 11.3 32.2 0.00 0.00 0.00 60 1008.0
20260506104513 19 202 6.4 19.3 0.00 0.00 0.00 62 1009.0
20260506103021 20 201 11.3 32.2 0.00 0.00 0.00 61 1009.0
20260506101513 21 188 12.9 25.7 0.00 0.00 0.00 58 1009.0
20260506100020 22 248 11.3 27.4 0.00 0.00 0.00 51 1008.0
20260506094513 22 244 8.0 17.7 0.00 0.00 0.00 47 1008.0
20260506093020 22 242 8.0 17.7 0.00 0.00 0.00 48 1008.0
20260506091513 22 229 6.4 14.5 0.00 0.00 0.00 50 1008.0
20260506090021 21 165 3.2 14.5 0.00 0.00 0.00 51 1008.0
20260506084513 21 180 4.8 14.5 0.00 0.00 0.00 54 1008.0
20260506083020 21 189 6.4 12.9 0.00 0.00 0.00 55 1008.0
20260506081513 20 169 1.6 6.4 0.00 0.00 0.00 54 1008.0
20260506071513 18 200 1.6 4.8 0.00 0.00 0.00 69 1009.0
20260506061513 10 0 0.0 0.0 0.00 0.00 0.00 97 1010.0
20260506044513 7 0 0.0 0.0 0.00 0.00 0.00 99 1011.0
20260506043020 7 0 0.0 0.0 0.00 0.00 0.00 99 1011.0
20260506041513 7 0 0.0 0.0 0.00 0.00 0.00 99 1010.0
20260506040021 7 0 0.0 0.0 0.00 0.00 0.00 99 1010.0
20260506034513 7 0 0.0 0.0 0.00 0.00 0.00 98 1010.0
20260506031513 8 270 0.0 3.2 0.00 0.00 0.00 98 1010.0
20260506030021 8 0 0.0 0.0 0.00 0.00 0.00 97 1010.0
20260506024514 8 0 0.0 0.0 0.00 0.00 0.00 97 1010.0
20260506023021 8 0 0.0 0.0 0.00 0.00 0.00 97 1010.0
20260506021513 8 0 0.0 3.2 0.00 0.00 0.00 96 1010.0
20260506020020 8 0 0.0 0.0 0.00 0.00 0.00 96 1009.0
20260506014513 9 0 0.0 0.0 0.00 0.00 0.00 95 1009.0
20260506013021 9 0 0.0 0.0 0.00 0.00 0.00 94 1009.0
20260506011513 10 0 0.0 0.0 0.00 0.00 0.00 93 1009.0
20260506010019 10 0 0.0 0.0 0.00 0.00 0.00 91 1009.0
20260506004513 11 0 0.0 1.6 0.00 0.00 0.00 90 1009.0
20260506003019 12 0 0.0 0.0 0.00 0.00 0.00 87 1009.0
20260506001513 12 0 0.0 3.2 0.00 0.00 0.00 87 1009.0
20260506000019 12 135 0.0 3.2 0.00 0.00 0.00 85 1009.0
20260505234514 12 0 0.0 0.0 0.00 0.00 0.00 84 1009.0
20260505233020 12 135 0.0 3.2 0.00 0.00 0.00 84 1009.0
20260505231518 13 0 0.0 0.0 0.00 0.00 0.00 83 1009.0
20260505230018 13 180 0.0 6.4 0.00 0.00 0.00 82 1009.0
20260505224513 13 0 0.0 3.2 0.00 0.00 0.00 82 1009.0
20260505223021 13 215 3.2 11.3 0.00 0.00 0.00 79 1009.0
20260505221513 13 203 0.0 4.8 0.00 0.00 0.00 80 1009.0
20260505220025 13 29 1.6 12.9 0.00 0.00 0.00 79 1009.0
20260505214513 13 90 1.6 4.8 0.00 0.00 0.00 80 1009.0
20260505213020 13 115 1.6 6.4 0.00 0.00 0.00 79 1009.0
20260505211513 14 135 0.0 4.8 0.00 0.00 0.00 79 1009.0
20260505210021 15 104 1.6 4.8 0.00 0.00 0.00 77 1009.0
20260505204513 15 150 4.8 14.5 0.00 0.00 0.00 76 1009.0
20260505203021 15 146 6.4 19.3 0.00 0.00 0.00 75 1009.0
20260505201513 15 210 4.8 24.1 0.00 0.00 0.00 74 1009.0
20260505200020 15 129 6.4 19.3 0.00 0.00 0.00 74 1009.0
20260505194513 15 176 3.2 14.5 0.00 0.00 0.00 74 1009.0
20260505193021 15 140 3.2 16.1 0.00 0.00 0.00 73 1009.0
20260505191513 15 185 4.8 12.9 0.00 0.00 0.00 71 1009.0
20260505184513 16 331 3.2 8.0 0.00 0.00 0.00 69 1009.0
20260505183020 16 204 4.8 22.5 0.00 0.00 0.00 67 1008.0
20260505181513 16 163 4.8 17.7 0.00 0.00 0.00 65 1009.0
20260505180021 17 184 6.4 16.1 0.00 0.00 0.00 63 1009.0
20260505174513 17 188 6.4 25.7 0.00 0.00 0.00 62 1009.0
20260505173019 18 194 8.0 17.7 0.00 0.00 0.00 60 1008.0
20260505171513 18 166 14.5 45.1 0.00 0.00 0.00 59 1008.0